STARLINK-4490 (53409 NORAD) Tracking and Keplerian Element Data

This shows tracking and keplerian element data for the satellite.

Feedback or suggestion? Click here.




ElementValue
Catalog53409
NameSTARLINK-4490
Epoch Orbit799
Epoch Day270.25001157
Epoch Year2022
RAAN10.2436
Inclination53.2186
Eccentricity0.0002227
Argument of Perigee31.4716
Mean Anonmoly135.9929
Mean Motion15.73159626
Decay Rate0.00077014
L11 53409U 22097X 22270.25001157 .00077014 00000+0 54904-3 0 9998
L22 53409 53.2186 10.2436 0002227 31.4716 135.9929 15.73159626 7997

Live tracking and technical data element details for STARLINK-4490 (NORAD 53409). STARLINK-4490 can be tracked NOW for your location showing map with azimuth and elevation plus other details from your city location.

Track the satellite on the map from your city or location and see movement details for azimuth, elevation, latitude, longitude, range, height, and movement on the map or in text.







IsCatalogInMostPopularTable: catalog: 53409, numindb: 2
Update: records affected: 1



GetName: 53409 STARLINK-4490

Hit Count: updated at: Wed, 05 Oct 2022 08:01:43 GMT